Location: *
(23.5860°S, 65.4036°W)
Time: 14:07:44
(UTC+00:00)

Fermi - Pass Details

Date: 25 August 2019
Orbit: 523 x 541 km, 25.6° (Epoch: 19 September)

Event Time Altitude Azimuth Distance (km) Brightness Sun altitude
Rises 23:02:13 0° 260° (W) 2,674 8.9 -13.0°
Reaches altitude 10° 23:04:29 10° 260° (W) 1,786 7.7 -13.5°
Maximum altitude 23:08:38 87° 345° (NNW) 541 3.7 -14.4°
Enters shadow 23:10:58 25° 76° (ENE) 1,101 4.8 -15.0°
